INTELSAT 37E (IS-37E)

Last updated on Sat Dec 13 2025 00:02:49 GMT+0000 (Coordinated Universal Time)

1 42950U 17059A 25346.20139865 -.00000131 00000+0 00000+0 0 9990 2 42950 0.0177 347.6728 0003104 269.1018 238.8840 1.00272170 30195
UTC large
Height (km)
Speed (km/s)
/
Latitude / Longitude
Inclination (degrees)
Orbital Period (minutes)
Azimuth
Elevation
Range (km)
Doppler Factor

Next 0 passes for location: London (51.5072 / 0.1276)

Sorry there are no passes over London.